Home > Time Zones > World Clock > Weather > Germany > Ulm > Past weeks

Flag for Germany Weather past 2 weeks in Ulm, Baden-Württemberg, Germany

Now
34 °F

Passing clouds.


Feels Like: 25 °F
Forecast: 32 / 38 °F
Wind: 12 mph from West

Location: Laupheim Airport

Current Time: Jan 29, 2015 at 6:14:37 AM

Latest Report: Jan 29, 2015 at 5:20 AM


Visibility: N/A

Pressure: 29.53 "Hg

Humidity: 81%

Dew point: 28 °F

Location of UlmLocation

Historic Weather in Ulm — Graph

°F

Ulm temperature yesterday

Maximum temperature yesterday: 36 °F (at 9:20 PM)
Minimum temperature yesterday: 28 °F (at 6:20 AM)
Average temperature yesterday: 32 °F

Past Weeks' High & Low Weather Summary

 TemperatureHumidityPressure
High46 °F (Jan 14, 4:20 AM)100% (Jan 15, 1:20 AM)30.36 "Hg (Jan 15, 1:20 AM)
Low28 °F (Jan 18, 9:20 AM)66% (Jan 15, 2:20 PM)29.53 "Hg (Jan 29, 12:20 AM)
Average32 °F91%29.97 "Hg
* Reported Jan 14 4:20 AM — Jan 29 4:20 AM, Ulm, Weather by CustomWeather, © 2014

Note: Actual official high and low records may vary slightly from our data, if they occured in-between our weather recording intervals... More about our weather records

Advertising

Ulm weather history for previous 24 hours

 ConditionsComfort  
Time TempWeatherWind HumidityBarometerVisibility
4:20 AM
Jan 29
34 °FPassing clouds.13 mph81%29.53 "HgN/A
3:20 AM34 °FLight rain. Passing clouds.14 mph93%29.53 "HgN/A
2:48 AM34 °FLight rain. Partly cloudy.10 mph93%29.53 "HgN/A
2:20 AM34 °FRain. Fog.12 mph93%29.56 "Hg1 mi
1:20 AM36 °FLight rain. Passing clouds.16 mph93%29.53 "HgN/A
12:20 AM34 °FRain. Partly cloudy.16 mph93%29.53 "HgN/A
11:20 PM
Jan 28
34 °FLight rain. Passing clouds.16 mph93%29.56 "HgN/A
10:20 PM36 °FLight rain. Partly cloudy.22 mph81%29.59 "HgN/A
9:20 PM36 °FLight snow. Partly cloudy.20 mph75%29.65 "Hg4 mi
8:20 PM34 °FPassing clouds.21 mph81%29.65 "HgN/A
7:20 PM34 °FPassing clouds.18 mph75%29.71 "HgN/A
6:20 PM34 °FPassing clouds.14 mph75%29.77 "HgN/A
5:20 PM34 °FPassing clouds.13 mph75%29.83 "HgN/A
4:20 PM34 °FBroken clouds.16 mph75%29.86 "HgN/A
3:20 PM34 °FBroken clouds.16 mph81%29.89 "HgN/A
2:20 PM34 °FBroken clouds.16 mph75%29.95 "HgN/A
1:20 PM34 °FBroken clouds.14 mph75%29.98 "HgN/A
12:20 PM34 °FBroken clouds.14 mph81%30.01 "HgN/A
11:20 AM32 °FPartly sunny.12 mph87%30.04 "HgN/A
10:20 AM32 °FPartly sunny.10 mph87%30.07 "Hg5 mi
9:20 AM30 °FBroken clouds.13 mph93%30.09 "Hg5 mi
8:20 AM30 °FPartly sunny.8 mph100%30.09 "Hg4 mi
7:20 AM30 °FPassing clouds.7 mph93%30.09 "Hg4 mi
6:20 AM28 °FPassing clouds.6 mph93%30.09 "Hg5 mi
Weather by CustomWeather, © 2014

See weather overviewHow to use our weather pages